Temp
4 4 3 3 3 3 3 3 3 3 3 3 3 3 3 3 3 4 4 4 4 4 4 3 3 3 2 2 3 3 2 2 2 3 3 3 3 3 3 2 2 2 2 2 2 2 2 2 2 1 1 1 1 1 1 1 1 1 2 2 2 2 2
3 3 3 3 3 3 3 3 3 3 3 3 3 3 3 3 3 4 4 4 4 4 3 3 3 3 2 2 2 2 2 2 2 2 2 2 2 2 2 2 2 2 2 2 2 2 2 2 1 1 1 1 1 1 1 1 1 1 1 2 2 2 2
3 3 3 3 3 3 3 3 3 3 3 3 3 3 3 3 3 3 4 4 4 4 3 3 2 2 2 2 2 2 2 2 2 2 2 2 2 2 2 2 2 2 2 2 2 2 2 1 1 1 1 1 1 1 1 1 1 1 1 1 2 1 1
3 3 3 3 3 3 3 3 3 3 3 3 3 3 3 3 3 3 4 4 4 3 3 3 2 2 2 2 2 2 2 2 2 2 2 2 2 2 2 2 2 2 2 2 2 2 2 1 1 1 1 1 1 1 1 1 1 1 1 1 1 1 1
3 3 3 3 3 3 3 3 3 3 3 3 3 3 2 3 3 3 4 3 3 3 3 3 3 2 2 2 2 2 2 2 2 2 2 2 2 2 2 2 2 2 2 2 2 1 1 1 1 1 1 1 1 1 1 1 1 1 1 1 1 1 1
3 3 3 3 3 3 3 3 3 3 3 3 3 3 3 3 3 3 4 3 3 3 3 3 2 2 2 2 2 2 2 2 2 2 2 2 2 2 2 1 1 1 1 2 1 1 1 1 1 1 1 1 1 1 1 1 1 1 1 1 1 1 1
3 2 2 2 2 2 2 3 3 3 3 3 3 3 3 3 3 3 4 3 3 3 3 2 2 2 2 2 2 2 2 2 2 2 2 1 1 1 1 1 1 1 1 1 1 1 1 0 0 -0 0 1 1 1 0 0 1 1 1 1 1 1 1
3 3 3 2 2 2 2 2 2 2 2 2 2 3 3 3 3 3 4 4 3 3 3 2 2 2 2 2 2 1 1 1 1 2 2 1 1 1 1 1 1 1 1 1 1 1 0 -0 -1 -1 -0 0 -0 -1 -1 -0 0 0 1 1 1 1 1
4 4 3 3 3 3 2 2 2 2 2 2 2 2 3 3 3 3 4 4 3 3 3 2 2 2 2 2 2 2 1 1 1 1 1 1 1 1 1 1 1 1 1 1 1 1 0 -0 -1 -1 -0 -0 -1 -1 -2 -1 0 0 0 0 0 0 0
4 4 4 3 3 3 3 2 2 2 2 2 2 2 3 3 3 3 3 3 3 3 3 3 2 2 2 2 2 2 1 1 1 1 1 1 1 1 1 1 1 1 1 1 1 1 1 0 -0 -1 -1 -1 -1 -1 -1 -0 -0 -0 0 0 0 0 0
4 4 4 4 4 3 3 2 2 2 2 2 2 2 2 3 3 3 3 3 3 3 3 3 3 2 2 2 2 2 2 2 2 1 1 1 1 1 1 1 1 1 1 1 1 1 1 1 0 0 -0 -1 -1 -1 -1 0 0 -0 -0 0 0 0 0
4 3 3 4 4 3 3 2 2 2 2 2 2 2 3 3 3 3 3 3 3 3 3 3 3 3 2 2 2 2 2 2 2 2 2 1 1 1 1 1 1 1 1 1 1 1 1 1 0 1 0 -0 -1 -1 -0 0 0 -0 -0 -0 0 0 0
3 3 3 3 4 3 3 2 2 2 2 2 2 2 3 3 3 3 3 3 3 3 3 3 3 3 3 3 2 2 2 2 2 2 2 2 2 2 1 1 1 1 1 1 1 0 0 0 0 0 -0 -0 -1 -0 -0 0 -0 -0 -0 -0 0 0 0
3 3 3 3 4 3 3 2 2 2 2 2 2 2 2 3 3 3 3 3 3 3 3 3 3 3 3 3 2 2 2 2 2 2 2 2 2 2 2 1 1 1 1 1 0 0 -0 -0 -0 -0 -0 -1 -1 -1 -0 -0 -0 -0 -0 0 0 0 0
3 3 3 3 3 3 3 2 2 2 2 2 2 2 2 2 3 3 3 3 3 3 3 3 3 2 2 2 2 2 2 2 2 2 2 2 2 1 1 1 1 1 0 0 0 0 -0 -0 -0 0 -0 -0 -0 -1 -0 -0 0 0 -0 0 0 0 0
3 3 3 3 3 3 3 3 2 2 2 2 2 2 2 2 2 2 2 3 3 2 2 2 2 2 2 2 2 2 2 2 2 2 2 1 1 1 1 1 1 0 0 0 0 -0 -0 -0 0 0 0 -0 -0 -1 -1 -0 0 0 0 -0 0 0 0
3 3 3 3 3 3 3 3 2 2 2 2 2 2 2 2 2 2 2 2 2 2 2 2 2 2 2 2 1 1 1 1 1 1 1 1 1 1 1 1 0 0 0 0 0 -0 -0 -0 -0 -0 -0 -0 -0 -0 -1 -1 -0 -0 -0 -0 -0 0 0
3 3 3 3 3 3 3 2 2 2 2 2 2 1 2 2 2 2 2 2 2 2 2 2 2 2 1 1 1 1 1 1 1 1 1 1 1 1 1 1 0 0 0 0 0 -0 -1 -1 -0 -0 -0 -0 -0 -0 -0 -1 -1 -1 -1 -0 -0 -0 -0
3 3 3 3 3 2 2 2 2 2 2 2 2 1 1 1 1 1 1 1 2 1 1 1 1 1 1 1 1 1 1 1 1 1 1 1 1 1 1 1 1 0 0 0 0 0 -0 -0 -0 -1 -1 -0 -0 -0 -0 -1 -1 -1 -1 -1 -1 -0 -0
3 3 2 2 2 2 2 2 2 2 2 2 2 1 1 1 1 1 1 1 1 1 1 1 1 1 1 1 1 1 1 1 1 1 1 1 1 1 1 1 1 0 0 0 0 0 -0 -0 -0 -0 -1 -1 -0 -0 -1 -1 -1 -0 -1 -1 -1 -1 -0
2 2 2 2 2 2 2 2 2 2 2 2 2 1 1 1 1 0 1 1 1 1 1 1 1 0 0 0 0 0 0 0 0 0 0 0 0 0 0 0 0 0 0 1 0 0 0 -0 -0 -0 -1 -1 -1 -1 -1 -1 -1 -1 -1 -1 -1 -1 -1
1 1 1 1 1 1 2 2 2 2 2 2 1 1 0 0 0 0 0 0 0 0 0 0 0 0 0 0 0 0 0 0 0 0 0 -0 0 0 -0 0 0 0 0 0 0 -0 0 -0 -0 -1 -1 -1 -1 -1 -1 -1 -1 -1 -1 -1 -1 -1 -1
1 1 1 1 1 1 1 1 1 1 1 1 1 1 1 1 1 0 0 0 -0 -0 -0 -0 -0 -0 -0 0 -0 -0 -0 -0 -0 -0 -0 -0 -0 -0 -0 -0 -0 -0 -0 -0 -0 -0 -0 -1 -1 -1 -1 -1 -1 -1 -1 -1 -1 -1 -1 -1 -1 -1 -1
1 1 1 1 1 1 2 1 1 1 1 1 1 1 1 1 1 1 1 0 0 -0 -0 -0 -0 -0 -0 -0 -0 -0 -0 -0 -0 -1 -1 -1 -1 -1 -0 -0 -1 -0 -0 -1 -1 -1 -1 -1 -1 -1 -1 -1 -1 -2 -2 -1 -1 -1 -1 -1 -1 -1 -1
1 1 1 1 1 1 1 1 1 1 1 1 1 1 1 1 1 1 0 0 0 -0 -0 0 0 0 -0 -0 -0 -0 -0 -0 -0 -0 -0 -1 -1 -1 -1 -1 -1 -1 -1 -1 -1 -1 -1 -1 -1 -1 -1 -1 -2 -2 -2 -2 -1 -1 -1 -1 -1 -1 -1
1 1 1 1 1 1 1 1 1 1 1 1 1 1 1 1 1 0 0 -0 -0 -0 -0 -0 -0 -0 -0 -1 -1 -1 -0 -0 -0 -0 -0 -1 -1 -1 -1 -1 -1 -1 -1 -1 -1 -1 -1 -1 -1 -1 -2 -2 -2 -2 -2 -2 -2 -2 -2 -2 -1 -1 -1
1 1 1 1 1 1 1 1 1 1 1 1 1 1 1 1 1 0 0 -0 -1 -1 -1 -1 -1 -1 -1 -1 -1 -1 -1 -1 -1 -1 -1 -1 -1 -1 -1 -1 -1 -1 -2 -2 -2 -1 -2 -1 -1 -1 -2 -2 -2 -2 -2 -2 -2 -2 -2 -2 -2 -2 -2
0 0 0 0 1 1 1 1 1 1 1 0 1 1 1 0 0 0 0 -0 -0 -0 -1 -1 -1 -1 -1 -1 -1 -1 -1 -1 -1 -1 -1 -1 -1 -1 -1 -1 -1 -1 -1 -2 -2 -2 -2 -2 -1 -1 -2 -2 -2 -2 -2 -2 -2 -2 -2 -2 -2 -2 -2
-0 -0 -0 -0 -0 0 0 0 0 0 0 0 0 0 0 0 0 0 -0 -0 -0 -0 -0 -1 -1 -0 -0 -1 -1 -1 -0 -0 -1 -1 -1 -1 -1 -1 -1 -1 -1 -1 -2 -2 -2 -2 -2 -2 -2 -2 -2 -2 -2 -2 -2 -2 -2 -2 -2 -2 -2 -2 -2
-1 -1 -1 -1 -1 -0 -0 -0 0 0 0 0 0 0 0 -0 -0 -0 -0 -0 -1 -1 -1 -1 -1 -1 -0 -0 -0 -0 -0 -0 -1 -1 -1 -1 -1 -1 -1 -1 -1 -2 -2 -2 -2 -2 -3 -3 -2 -2 -2 -2 -2 -3 -3 -3 -3 -2 -2 -2 -2 -2 -3
-1 -1 -1 -1 -1 -1 -0 -0 -0 0 0 0 -0 -0 -0 -0 -0 -0 -0 -1 -1 -1 -1 -1 -1 -1 -1 -1 -0 -0 -0 -0 -0 -1 -1 -1 -1 -1 -1 -2 -2 -2 -2 -2 -2 -2 -3 -3 -3 -2 -2 -3 -3 -3 -3 -3 -3 -3 -3 -3 -3 -3 -3
-2 -2 -2 -1 -1 -1 -1 -0 -0 -0 -0 -0 -0 -0 -0 -0 -1 -1 -1 -1 -1 -1 -1 -2 -2 -2 -1 -1 -1 -0 -0 -0 -0 -0 -0 -1 -1 -1 -1 -2 -2 -2 -2 -2 -3 -3 -3 -3 -3 -3 -3 -3 -3 -3 -3 -3 -3 -3 -3 -3 -3 -3 -3
-3 -2 -2 -2 -2 -1 -1 -1 -1 -1 -1 -1 -1 -1 -1 -1 -1 -1 -1 -1 -1 -1 -1 -2 -2 -2 -2 -1 -1 -1 -1 -1 -1 -0 -1 -1 -1 -1 -1 -2 -2 -2 -2 -3 -3 -3 -3 -3 -3 -3 -3 -3 -3 -3 -3 -3 -3 -3 -3 -3 -3 -3 -3
-3 -3 -2 -2 -2 -2 -2 -2 -2 -1 -1 -1 -1 -1 -1 -1 -1 -1 -1 -1 -1 -1 -1 -2 -2 -2 -2 -2 -2 -2 -1 -1 -1 -1 -1 -1 -1 -1 -2 -2 -2 -2 -3 -3 -3 -3 -3 -3 -4 -4 -4 -4 -3 -3 -3 -3 -3 -3 -3 -3 -3 -3 -3
-3 -3 -3 -2 -2 -2 -2 -2 -2 -2 -2 -2 -2 -2 -1 -1 -1 -2 -2 -2 -2 -2 -1 -2 -2 -2 -2 -2 -2 -2 -2 -1 -1 -1 -1 -2 -1 -2 -2 -2 -2 -3 -3 -3 -4 -4 -4 -4 -4 -4 -4 -4 -4 -4 -3 -3 -3 -3 -3 -3 -4 -3 -3
-3 -3 -3 -3 -2 -2 -2 -2 -2 -2 -2 -2 -2 -2 -2 -2 -2 -2 -2 -2 -2 -2 -2 -2 -2 -3 -3 -2 -2 -2 -2 -2 -2 -2 -2 -2 -2 -2 -2 -2 -3 -3 -3 -4 -4 -4 -4 -4 -4 -4 -4 -4 -4 -4 -4 -4 -4 -4 -4 -4 -4 -4 -4
-2 -2 -2 -2 -2 -2 -2 -2 -2 -2 -2 -2 -2 -2 -2 -2 -2 -2 -2 -2 -2 -2 -3 -3 -3 -3 -3 -3 -3 -3 -3 -2 -2 -2 -2 -2 -2 -3 -3 -3 -4 -4 -4 -4 -4 -4 -4 -4 -4 -4 -4 -4 -4 -4 -4 -4 -4 -4 -4 -4 -4 -4 -4
Height
3144 3144 3144 3144 3144 3144 3143 3143 3143 3142 3143 3142 3142 3142 3141 3140 3139 3138 3137 3136 3136 3135 3136 3137 3137 3137 3138 3139 3140 3140 3141 3142 3143 3144 3145 3147 3147 3148 3148 3149 3150 3151 3152 3153 3154 3154 3155 3157 3157 3158 3158 3159 3159 3159 3160 3159 3159 3159 3160 3161 3161 3161 3161
3143 3143 3143 3142 3142 3143 3142 3142 3142 3141 3141 3141 3141 3141 3140 3139 3138 3137 3136 3135 3135 3134 3135 3136 3136 3137 3138 3138 3139 3140 3140 3141 3142 3142 3143 3145 3146 3146 3146 3147 3148 3150 3151 3151 3152 3152 3154 3155 3156 3157 3157 3158 3159 3159 3159 3159 3159 3158 3158 3160 3160 3160 3160
3142 3141 3141 3141 3141 3141 3141 3141 3141 3140 3140 3140 3139 3139 3138 3137 3136 3135 3135 3134 3134 3133 3134 3135 3135 3136 3137 3137 3138 3139 3140 3140 3141 3141 3142 3143 3145 3146 3146 3146 3147 3149 3150 3150 3151 3152 3153 3154 3155 3155 3156 3157 3158 3158 3158 3158 3158 3158 3158 3158 3159 3159 3159
3139 3140 3140 3139 3139 3140 3140 3139 3139 3139 3139 3139 3138 3137 3137 3136 3135 3134 3133 3133 3132 3132 3133 3133 3134 3135 3136 3136 3137 3138 3138 3139 3140 3140 3140 3141 3143 3145 3145 3145 3146 3149 3149 3149 3150 3152 3152 3153 3154 3154 3155 3156 3157 3157 3157 3157 3157 3157 3157 3158 3158 3158 3158
3137 3138 3138 3138 3138 3138 3138 3138 3137 3137 3138 3138 3137 3136 3136 3135 3134 3133 3132 3131 3131 3132 3132 3132 3133 3134 3135 3136 3136 3137 3137 3138 3139 3140 3139 3140 3142 3143 3144 3144 3146 3148 3148 3148 3149 3151 3151 3152 3153 3153 3154 3155 3155 3155 3155 3156 3156 3157 3157 3157 3157 3158 3158
3136 3137 3137 3137 3137 3137 3137 3136 3136 3136 3136 3137 3136 3135 3135 3134 3133 3132 3131 3130 3130 3131 3131 3132 3132 3133 3134 3135 3136 3136 3137 3138 3138 3139 3139 3140 3142 3143 3144 3144 3145 3146 3148 3148 3149 3150 3151 3151 3151 3152 3153 3154 3155 3155 3155 3155 3156 3156 3156 3157 3157 3157 3157
3134 3134 3135 3135 3136 3136 3135 3134 3134 3134 3135 3135 3135 3134 3133 3132 3132 3131 3130 3130 3130 3130 3130 3131 3132 3132 3134 3135 3136 3136 3137 3138 3138 3139 3140 3141 3141 3142 3144 3144 3144 3145 3147 3148 3149 3150 3150 3151 3151 3152 3153 3154 3154 3154 3154 3155 3155 3155 3156 3156 3157 3157 3157
3131 3132 3133 3134 3134 3134 3133 3133 3132 3132 3133 3133 3133 3133 3132 3131 3131 3130 3129 3129 3129 3129 3129 3130 3131 3132 3133 3134 3135 3136 3136 3137 3138 3139 3140 3140 3141 3142 3143 3144 3144 3145 3146 3147 3148 3149 3150 3151 3151 3152 3153 3153 3153 3154 3154 3154 3155 3155 3156 3156 3156 3156 3157
3129 3130 3131 3132 3132 3132 3132 3131 3131 3131 3132 3132 3132 3131 3131 3130 3129 3129 3129 3128 3129 3129 3129 3129 3130 3132 3133 3134 3135 3136 3136 3137 3138 3139 3139 3140 3141 3141 3143 3144 3144 3145 3146 3146 3147 3148 3149 3150 3151 3152 3153 3153 3154 3154 3155 3154 3154 3155 3155 3156 3156 3156 3156
3128 3129 3130 3131 3131 3130 3130 3129 3130 3130 3131 3131 3131 3130 3129 3129 3128 3128 3128 3128 3128 3128 3129 3129 3130 3132 3133 3134 3135 3136 3136 3137 3138 3139 3139 3140 3140 3141 3142 3144 3144 3146 3146 3147 3147 3148 3149 3150 3151 3152 3153 3153 3154 3154 3154 3154 3154 3154 3155 3155 3156 3156 3156
3127 3128 3129 3130 3129 3129 3128 3128 3128 3129 3129 3130 3129 3129 3128 3128 3127 3127 3127 3127 3127 3128 3128 3129 3130 3131 3132 3133 3134 3135 3136 3137 3138 3139 3139 3140 3140 3141 3142 3143 3144 3145 3146 3147 3148 3149 3149 3150 3151 3151 3152 3152 3153 3153 3153 3153 3154 3154 3154 3155 3155 3156 3156
3125 3126 3127 3128 3128 3128 3127 3127 3127 3127 3128 3129 3128 3128 3127 3127 3126 3126 3126 3127 3127 3127 3128 3129 3130 3132 3132 3133 3134 3135 3136 3137 3138 3138 3139 3140 3140 3141 3142 3143 3143 3144 3145 3146 3147 3148 3149 3150 3150 3151 3151 3152 3152 3152 3152 3153 3154 3154 3154 3154 3154 3155 3155
3123 3124 3125 3127 3127 3126 3126 3126 3126 3126 3127 3127 3127 3127 3126 3126 3126 3126 3126 3126 3127 3127 3128 3129 3130 3131 3133 3133 3134 3135 3136 3137 3137 3138 3139 3139 3140 3141 3142 3143 3143 3144 3145 3146 3147 3148 3149 3150 3151 3151 3152 3152 3152 3152 3152 3153 3153 3154 3154 3154 3154 3153 3153
3122 3123 3124 3125 3125 3125 3125 3125 3125 3126 3126 3126 3126 3126 3126 3126 3125 3126 3126 3126 3127 3127 3128 3129 3130 3131 3133 3134 3135 3135 3136 3137 3138 3138 3139 3140 3141 3142 3142 3143 3144 3145 3146 3147 3148 3149 3150 3150 3151 3151 3151 3152 3152 3152 3152 3152 3153 3153 3153 3153 3153 3152 3152
3121 3121 3122 3123 3123 3123 3124 3124 3125 3125 3125 3125 3126 3125 3125 3125 3125 3126 3126 3127 3127 3127 3128 3129 3130 3132 3133 3134 3135 3136 3137 3137 3138 3139 3140 3141 3141 3142 3143 3144 3145 3146 3146 3147 3148 3149 3149 3149 3149 3150 3151 3151 3152 3152 3151 3151 3152 3152 3151 3151 3151 3151 3151
3119 3121 3122 3122 3122 3122 3123 3124 3124 3124 3124 3124 3125 3125 3125 3125 3126 3126 3127 3127 3128 3128 3129 3130 3131 3132 3133 3134 3136 3137 3138 3138 3139 3140 3140 3141 3142 3143 3143 3144 3145 3146 3147 3148 3148 3149 3149 3148 3149 3150 3150 3151 3151 3151 3151 3149 3149 3150 3150 3150 3150 3150 3150
3119 3120 3121 3121 3120 3121 3123 3123 3123 3123 3124 3124 3124 3124 3124 3125 3126 3126 3127 3128 3129 3129 3130 3130 3131 3133 3134 3135 3136 3137 3138 3139 3140 3140 3141 3141 3142 3143 3143 3144 3145 3145 3146 3147 3147 3148 3148 3148 3148 3149 3149 3150 3150 3151 3150 3149 3148 3148 3149 3149 3148 3148 3149
3118 3119 3120 3120 3120 3121 3122 3122 3122 3122 3122 3123 3123 3123 3124 3124 3125 3126 3127 3128 3129 3130 3130 3131 3132 3134 3135 3136 3137 3138 3138 3139 3140 3140 3141 3141 3142 3143 3143 3144 3144 3145 3145 3146 3146 3147 3148 3147 3148 3148 3148 3148 3149 3150 3149 3149 3148 3147 3147 3147 3147 3147 3147
3117 3118 3118 3118 3119 3119 3120 3121 3121 3121 3121 3121 3121 3122 3123 3124 3125 3126 3127 3128 3129 3130 3131 3132 3133 3135 3136 3137 3138 3138 3139 3139 3140 3140 3141 3141 3142 3142 3142 3143 3144 3144 3144 3145 3145 3146 3147 3146 3147 3147 3146 3146 3147 3148 3148 3147 3147 3147 3147 3146 3145 3145 3145
3115 3115 3116 3116 3117 3118 3118 3119 3119 3119 3119 3120 3120 3121 3122 3123 3124 3125 3126 3128 3129 3130 3131 3132 3134 3135 3136 3137 3138 3139 3139 3139 3140 3140 3140 3140 3141 3141 3141 3141 3142 3142 3143 3143 3144 3145 3146 3146 3146 3146 3146 3144 3145 3146 3146 3145 3145 3145 3145 3145 3144 3143 3143
3112 3113 3114 3115 3116 3117 3117 3117 3118 3118 3118 3118 3119 3120 3121 3122 3123 3124 3126 3127 3128 3130 3131 3132 3134 3135 3137 3137 3138 3139 3139 3139 3139 3139 3139 3139 3139 3140 3139 3139 3139 3141 3141 3142 3143 3143 3143 3144 3144 3144 3144 3144 3143 3144 3144 3144 3143 3143 3143 3143 3143 3142 3141
3110 3111 3112 3113 3114 3115 3116 3116 3116 3117 3117 3117 3118 3119 3120 3121 3122 3123 3124 3126 3127 3128 3130 3132 3133 3135 3136 3137 3138 3138 3139 3139 3138 3138 3138 3138 3138 3138 3137 3136 3138 3140 3140 3140 3141 3141 3141 3141 3141 3142 3143 3142 3142 3142 3142 3142 3141 3141 3142 3142 3141 3141 3140
3110 3110 3111 3112 3113 3114 3114 3115 3115 3115 3115 3116 3116 3117 3118 3119 3120 3121 3123 3124 3125 3127 3128 3130 3132 3133 3135 3136 3137 3137 3137 3137 3137 3136 3136 3136 3135 3134 3134 3135 3136 3137 3137 3137 3138 3138 3138 3139 3139 3139 3140 3140 3140 3140 3140 3140 3139 3140 3140 3140 3140 3139 3139
3109 3110 3111 3111 3112 3112 3113 3113 3114 3114 3114 3115 3116 3117 3117 3117 3119 3120 3121 3122 3122 3123 3125 3126 3128 3131 3133 3134 3134 3135 3135 3135 3134 3134 3133 3133 3132 3130 3131 3132 3134 3134 3135 3135 3135 3135 3135 3136 3136 3136 3137 3137 3137 3137 3137 3137 3137 3137 3138 3138 3138 3138 3137
3109 3109 3110 3111 3111 3111 3111 3112 3112 3113 3113 3114 3115 3116 3116 3117 3118 3119 3120 3120 3120 3121 3122 3123 3125 3128 3130 3130 3131 3132 3132 3132 3132 3131 3130 3130 3128 3127 3127 3129 3129 3130 3132 3132 3131 3132 3132 3133 3133 3133 3134 3134 3134 3134 3135 3135 3135 3135 3135 3135 3135 3135 3135
3108 3108 3109 3110 3110 3110 3110 3111 3111 3112 3112 3113 3115 3115 3116 3116 3116 3117 3118 3119 3119 3119 3120 3121 3123 3125 3126 3126 3127 3128 3128 3128 3128 3128 3128 3126 3123 3122 3124 3125 3126 3126 3127 3128 3129 3129 3129 3130 3130 3130 3130 3131 3131 3132 3132 3132 3132 3133 3133 3132 3132 3132 3132
3106 3107 3108 3108 3108 3109 3109 3109 3109 3110 3111 3112 3113 3114 3114 3114 3114 3115 3116 3116 3116 3116 3117 3119 3121 3123 3123 3123 3123 3123 3124 3124 3123 3124 3123 3119 3117 3119 3121 3123 3123 3123 3123 3124 3125 3125 3126 3127 3127 3126 3126 3127 3128 3128 3129 3129 3130 3130 3130 3130 3130 3129 3129
3104 3105 3106 3106 3107 3107 3107 3107 3107 3107 3107 3108 3109 3110 3111 3112 3112 3113 3114 3114 3113 3113 3115 3116 3119 3120 3120 3120 3120 3119 3119 3119 3118 3118 3116 3114 3115 3117 3118 3119 3119 3120 3120 3121 3121 3121 3122 3123 3123 3123 3124 3125 3125 3126 3126 3127 3128 3128 3128 3127 3127 3126 3126
3102 3103 3104 3104 3105 3105 3105 3105 3106 3106 3105 3105 3105 3106 3107 3108 3109 3109 3110 3110 3110 3110 3112 3113 3115 3116 3116 3116 3115 3115 3115 3115 3113 3112 3111 3112 3113 3113 3113 3113 3114 3114 3115 3116 3116 3116 3118 3119 3119 3120 3121 3121 3122 3122 3124 3125 3125 3125 3125 3124 3124 3123 3122
3100 3101 3102 3103 3103 3103 3103 3103 3104 3104 3103 3103 3103 3103 3103 3104 3104 3105 3106 3106 3106 3106 3107 3109 3110 3112 3112 3112 3111 3111 3111 3110 3109 3108 3108 3109 3109 3108 3108 3108 3108 3108 3109 3111 3111 3112 3113 3114 3115 3116 3117 3117 3118 3120 3121 3122 3122 3122 3121 3121 3120 3119 3119
3097 3099 3100 3101 3100 3100 3100 3101 3101 3101 3101 3101 3101 3101 3100 3100 3100 3100 3101 3101 3101 3101 3102 3103 3104 3106 3107 3108 3107 3107 3107 3106 3105 3104 3104 3105 3104 3104 3105 3104 3103 3104 3105 3107 3107 3108 3109 3111 3112 3113 3113 3114 3116 3117 3118 3119 3118 3118 3117 3117 3117 3116 3115
3094 3096 3097 3098 3097 3097 3097 3097 3097 3097 3097 3097 3097 3097 3097 3097 3096 3096 3096 3096 3097 3098 3098 3098 3100 3101 3102 3103 3103 3103 3103 3103 3101 3100 3100 3100 3100 3100 3101 3100 3100 3101 3102 3103 3103 3104 3106 3107 3108 3110 3110 3111 3113 3115 3115 3115 3115 3114 3114 3113 3113 3112 3111
3091 3092 3093 3094 3093 3093 3093 3093 3093 3093 3093 3092 3092 3093 3093 3093 3093 3093 3092 3092 3092 3093 3094 3095 3096 3097 3097 3098 3098 3099 3099 3098 3096 3096 3096 3095 3096 3096 3097 3096 3096 3097 3098 3099 3100 3101 3103 3104 3105 3106 3108 3109 3110 3111 3112 3113 3112 3111 3110 3110 3109 3109 3108
3088 3088 3089 3089 3089 3089 3088 3088 3088 3088 3088 3088 3087 3088 3088 3089 3088 3088 3088 3087 3087 3088 3089 3090 3091 3092 3093 3093 3094 3094 3094 3093 3092 3092 3091 3090 3091 3092 3092 3092 3093 3094 3094 3096 3097 3099 3100 3101 3103 3104 3105 3106 3106 3107 3108 3109 3108 3107 3107 3106 3105 3105 3104
3083 3083 3083 3083 3083 3083 3083 3083 3082 3082 3082 3082 3082 3083 3083 3084 3084 3084 3083 3083 3083 3082 3083 3084 3086 3087 3087 3088 3089 3089 3089 3089 3088 3087 3086 3086 3087 3087 3088 3089 3089 3090 3092 3094 3096 3097 3098 3099 3101 3102 3103 3103 3103 3103 3103 3103 3103 3103 3103 3102 3101 3100 3099
3076 3077 3077 3077 3076 3076 3077 3077 3077 3077 3077 3077 3077 3078 3078 3079 3079 3079 3079 3078 3078 3077 3077 3078 3080 3081 3082 3082 3083 3084 3084 3084 3083 3082 3082 3082 3083 3084 3085 3086 3087 3088 3090 3093 3094 3095 3096 3097 3099 3099 3100 3100 3099 3099 3099 3099 3099 3099 3099 3098 3097 3096 3095
3070 3069 3069 3069 3069 3069 3070 3070 3070 3070 3071 3071 3071 3071 3072 3072 3073 3073 3073 3073 3072 3072 3071 3072 3074 3075 3077 3077 3078 3078 3077 3076 3076 3078 3078 3077 3079 3082 3083 3084 3085 3087 3089 3090 3091 3092 3094 3095 3096 3096 3096 3097 3096 3096 3096 3095 3095 3095 3094 3094 3092 3091 3090
Wind_Speed
2 1 2 3 3 4 4 5 6 8 10 10 10 9 9 9 8 7 6 5 4 3 2 5 7 8 8 8 9 10 11 10 10 10 9 9 9 9 9 10 10 8 8 9 8 9 9 10 10 8 7 5 5 5 4 4 6 6 6 6 6 7 7
2 2 3 4 4 5 5 6 7 9 10 11 11 10 8 8 8 8 7 6 5 4 2 6 6 6 9 10 11 13 13 12 11 11 10 9 8 7 8 10 11 9 9 10 11 11 10 10 10 9 8 7 6 6 5 6 6 7 7 6 5 6 7
4 4 5 6 6 7 8 8 9 10 10 11 13 12 9 8 8 8 7 6 6 5 2 6 6 6 8 9 11 12 12 12 12 10 10 11 10 8 8 10 10 9 9 11 13 12 10 9 9 8 8 8 6 6 6 6 6 6 7 6 4 4 5
6 6 7 8 9 9 10 12 12 12 12 12 15 13 9 7 8 8 7 6 5 5 3 5 7 6 6 7 9 10 11 12 12 10 11 13 12 9 9 10 8 8 9 10 11 11 10 9 9 8 8 8 6 6 5 5 5 4 4 3 3 2 3
7 8 8 9 10 12 13 15 15 16 15 14 14 12 7 6 8 8 8 6 5 4 3 5 6 6 6 7 8 9 9 9 10 10 11 11 10 8 8 9 8 9 10 9 9 11 11 10 8 7 7 6 4 4 3 3 2 1 1 2 2 2 3
8 9 9 10 12 14 16 18 19 18 17 16 13 8 5 5 7 8 8 6 5 4 2 4 6 6 7 7 6 7 7 8 10 11 11 10 9 9 9 8 7 8 8 9 8 9 11 10 7 5 5 5 4 3 3 1 1 2 3 4 4 4 4
11 10 10 11 13 15 17 19 21 21 19 15 11 6 4 5 6 8 8 6 5 4 2 4 5 6 7 6 6 5 6 9 10 10 11 10 9 10 9 9 8 7 7 9 9 9 8 8 7 4 2 2 2 2 1 1 4 5 5 5 5 6 6
13 13 12 12 13 15 18 20 21 21 16 11 7 5 4 4 5 6 7 6 5 4 3 4 4 4 5 6 5 5 6 8 9 10 10 9 9 10 10 10 10 9 9 9 10 10 8 9 10 7 4 2 5 6 2 1 5 5 5 6 6 6 6
15 15 14 13 14 16 17 19 19 16 11 8 6 5 4 4 5 5 5 5 5 4 3 3 3 3 4 6 5 5 5 6 7 9 9 8 9 10 10 11 10 9 8 8 9 10 10 12 13 9 2 4 8 8 5 3 3 4 4 7 6 6 6
15 16 15 14 15 15 15 16 14 12 9 8 7 5 4 3 4 4 4 4 4 4 3 3 3 3 4 5 5 5 6 6 6 7 8 8 9 10 10 9 9 9 9 9 8 8 8 11 14 13 11 8 8 5 3 4 3 4 4 5 5 5 4
15 16 15 15 13 11 11 11 10 10 9 8 7 6 4 3 2 3 3 3 2 2 2 3 3 3 4 4 5 6 7 6 7 7 8 8 8 9 9 9 9 9 10 10 9 8 8 8 12 13 11 10 11 5 2 5 5 3 2 3 3 3 2
15 14 13 12 10 8 8 8 8 9 8 7 6 5 3 2 2 2 2 1 1 1 0 1 2 2 4 5 5 6 6 7 8 8 9 9 9 9 9 9 10 10 11 11 10 10 10 9 9 9 8 11 12 7 5 4 3 2 1 2 3 2 2
16 14 11 9 7 7 6 7 8 7 6 6 5 3 2 2 2 2 2 2 2 2 2 2 2 2 3 4 5 6 7 8 8 8 9 9 9 9 9 9 10 11 12 12 11 10 9 9 9 8 8 10 10 6 3 2 1 1 2 3 3 3 3
15 13 10 7 6 5 5 7 8 7 6 5 4 3 2 2 2 3 3 3 4 4 4 3 3 3 3 4 5 6 7 7 7 8 8 8 8 9 10 10 11 11 12 12 12 11 10 8 8 8 8 9 9 6 5 4 4 5 5 5 4 5 6
12 10 9 7 4 3 4 6 8 7 7 6 4 3 3 3 3 3 3 3 4 4 4 4 4 4 4 5 5 5 5 6 7 7 7 8 9 9 10 10 10 9 9 8 8 7 7 7 7 8 8 8 7 6 7 8 7 6 6 7 7 8 9
10 9 7 5 3 3 4 5 7 7 6 6 5 3 4 5 4 3 3 3 4 3 4 4 4 4 5 6 5 5 5 6 7 8 8 9 9 9 9 8 7 6 5 4 4 3 3 4 3 3 3 3 4 5 7 10 10 8 8 9 11 11 10
8 8 6 4 3 4 4 5 6 6 6 5 5 3 4 6 5 4 4 4 3 3 3 4 4 5 6 6 6 6 6 7 7 7 7 7 6 6 6 5 4 3 3 3 3 2 3 6 6 5 6 6 6 7 8 10 12 12 12 12 14 14 12
7 7 6 5 4 5 5 5 5 6 6 5 5 4 4 6 6 5 5 5 5 4 4 4 5 6 6 6 7 6 6 6 5 5 4 4 3 3 2 3 3 3 4 4 5 4 5 8 8 8 10 10 9 9 10 10 11 12 13 15 15 15 13
6 6 5 5 5 6 6 6 5 5 5 5 5 5 5 6 8 7 7 8 7 6 6 7 7 7 7 7 7 6 6 5 5 5 4 4 5 5 5 5 5 6 7 7 8 7 8 10 10 10 11 13 12 10 9 10 11 12 13 15 16 15 13
6 6 6 5 6 6 6 7 7 7 6 5 5 6 6 7 9 10 10 10 10 9 9 10 9 9 10 10 9 9 9 8 8 9 9 9 9 9 10 11 11 11 12 11 11 11 11 12 12 12 12 15 15 11 9 11 14 15 14 12 14 16 16
6 5 5 5 5 5 6 7 8 8 8 7 6 6 8 9 10 11 12 12 13 13 13 13 13 13 13 13 13 12 12 12 12 13 13 13 14 13 15 17 16 16 16 15 15 15 15 15 15 15 15 16 17 14 12 14 16 16 14 12 13 15 17
6 5 5 5 5 5 6 6 7 8 9 8 7 7 9 10 11 12 14 15 15 15 15 16 16 16 17 17 16 16 16 16 17 17 17 18 18 18 20 22 21 19 19 20 19 20 20 19 19 19 17 16 17 16 15 16 15 14 12 11 13 15 17
6 6 6 6 6 6 7 6 7 8 10 10 9 8 9 11 12 13 15 16 18 18 18 18 18 18 19 19 20 20 20 20 21 21 21 21 22 24 25 24 23 23 23 24 24 23 23 23 23 22 21 18 16 16 16 15 15 13 12 12 14 15 17
8 7 7 7 8 8 9 8 8 10 11 11 11 11 12 13 14 15 16 18 20 20 20 20 21 21 21 22 22 23 23 24 24 25 25 25 27 29 29 28 27 27 27 27 27 26 25 25 24 24 24 20 16 15 15 13 13 13 13 14 16 16 17
9 10 10 10 10 10 10 10 10 11 13 12 12 14 15 16 16 17 19 20 22 22 21 21 22 22 22 24 24 25 26 27 27 28 29 30 31 33 32 31 31 30 29 29 29 28 26 25 25 26 24 20 16 14 13 13 13 14 15 16 17 18 18
12 12 12 12 12 11 12 12 12 13 14 14 15 16 17 17 17 18 19 21 24 26 24 23 23 23 23 25 26 27 28 29 30 31 32 33 35 35 33 31 30 29 30 29 29 29 28 27 28 27 23 20 15 13 13 14 14 15 16 17 19 19 18
14 14 15 15 14 13 13 14 14 15 15 15 16 17 17 18 19 19 19 20 24 27 27 26 26 24 24 25 27 28 29 31 33 33 34 37 39 36 32 29 29 30 30 29 28 29 29 29 28 25 22 21 17 15 15 15 15 16 17 18 19 19 18
14 15 16 16 15 14 14 15 15 17 17 18 18 19 20 20 21 21 21 22 25 27 27 27 26 25 25 27 29 30 31 33 34 35 37 37 37 35 32 31 31 32 33 32 31 32 31 29 24 21 21 20 19 16 14 14 15 16 17 18 19 19 19
15 16 17 16 16 16 17 16 17 18 19 21 22 22 23 23 23 24 24 25 27 27 27 26 25 25 26 28 30 31 32 33 35 38 38 35 34 35 34 33 32 33 33 33 33 33 31 25 21 22 21 19 16 14 13 14 16 16 17 18 19 19 19
16 16 17 17 18 19 19 19 19 20 22 23 24 26 27 26 26 26 26 27 28 29 28 27 25 25 25 27 28 30 31 31 34 36 36 34 33 33 31 30 31 32 32 31 31 30 26 23 23 23 21 18 15 13 13 15 16 16 17 18 19 19 20
17 17 19 20 21 22 22 22 23 25 26 27 28 29 30 31 31 30 30 29 29 30 30 29 27 26 25 25 27 28 28 29 31 35 35 34 32 30 28 28 31 31 29 29 31 30 26 24 24 21 19 17 16 14 14 15 16 16 17 18 19 19 20
20 22 23 24 25 26 27 27 28 29 31 32 32 33 33 33 33 34 34 33 31 30 31 30 29 28 26 25 26 26 27 28 32 35 35 33 31 29 28 29 30 29 28 28 29 26 23 23 21 17 16 16 15 14 13 14 16 17 18 19 19 20 20
25 27 28 29 30 31 31 32 32 33 33 34 34 35 35 35 35 34 35 36 35 34 33 32 31 29 27 27 27 28 29 32 35 36 34 33 33 31 29 29 29 27 25 24 22 19 19 19 17 15 15 15 15 15 14 14 16 18 19 19 20 21 21
28 30 31 32 33 34 34 35 34 34 34 33 34 34 33 33 33 33 34 35 37 37 36 35 33 31 29 29 27 27 30 33 35 35 33 34 34 32 29 28 26 22 19 18 18 17 17 17 16 16 16 16 16 18 18 17 18 20 21 21 21 22 22
32 34 35 35 36 36 36 36 35 34 34 33 33 33 33 32 32 33 35 36 38 39 39 38 35 34 33 32 29 27 29 32 35 35 35 34 33 31 27 22 19 18 17 18 18 18 17 17 17 17 16 16 17 19 20 20 20 21 22 23 23 23 24
37 38 39 39 39 39 39 38 37 37 36 36 36 35 36 36 36 37 38 40 41 42 42 40 37 34 32 31 30 29 30 33 35 36 34 32 29 25 20 17 17 17 18 19 18 18 18 18 18 17 16 16 17 19 21 22 22 23 23 24 24 24 24
39 40 40 41 41 41 41 41 41 41 41 41 41 41 41 42 42 43 43 44 44 43 42 41 40 36 32 30 31 32 33 35 36 34 31 29 25 17 14 17 18 19 19 20 19 19 19 19 18 17 17 17 18 20 22 23 24 24 24 24 25 25 26
Wind_Direction
207 298 325 323 333 347 3 1 359 359 357 356 351 347 346 341 341 345 346 345 331 303 239 200 209 224 231 230 227 231 235 236 241 241 231 227 233 237 242 241 229 224 233 232 222 217 217 214 215 222 226 228 241 239 231 239 259 276 283 290 297 297 298
240 290 295 299 311 326 338 339 343 347 347 348 344 338 333 334 332 332 338 335 331 333 226 192 193 212 222 225 225 229 232 231 236 242 241 239 240 240 244 243 233 225 227 228 224 221 217 214 219 225 224 224 222 218 231 246 258 272 280 289 294 292 294
243 265 276 288 302 315 322 322 325 331 334 338 339 333 320 322 325 322 328 326 330 339 259 201 193 205 219 227 231 234 232 231 234 239 243 241 236 233 237 240 237 229 222 220 219 218 212 206 206 206 209 214 217 224 237 246 254 268 281 296 302 290 291
238 257 272 290 304 312 315 315 315 320 327 331 335 332 313 310 321 316 320 323 325 330 293 225 211 216 225 228 232 237 232 228 228 234 241 239 235 232 230 234 229 210 209 212 211 205 193 187 188 191 197 200 209 225 234 242 251 261 276 302 327 326 316
236 259 276 292 301 308 312 312 313 317 324 325 328 329 312 309 321 317 319 322 316 319 294 243 226 220 222 223 227 236 233 222 219 224 228 227 225 216 210 217 201 180 187 195 193 187 179 178 182 190 192 186 196 222 232 258 279 293 326 346 351 355 352
244 260 273 290 300 309 313 310 311 315 319 318 318 320 313 321 328 323 323 320 310 316 285 234 223 212 214 216 218 229 227 216 212 214 214 212 206 195 193 200 184 161 160 166 170 172 172 173 173 188 189 163 167 185 177 167 22 12 13 19 18 24 35
246 255 269 287 299 308 310 309 310 314 316 314 308 304 311 326 334 327 322 317 308 302 261 225 221 213 208 203 205 217 216 210 206 204 204 201 196 192 190 193 186 167 157 158 152 146 159 161 150 164 212 171 152 97 99 91 57 51 45 47 47 46 48
248 256 267 280 294 303 306 307 310 313 314 310 299 297 311 324 330 327 319 314 306 290 258 234 229 215 199 194 199 210 210 210 206 205 207 202 194 194 189 188 189 185 182 180 165 151 143 132 142 177 231 192 107 84 80 10 51 63 64 62 62 55 48
253 260 265 274 290 298 303 306 309 311 309 304 299 293 302 315 320 320 315 310 300 287 274 251 231 204 194 194 199 209 214 212 205 203 206 201 197 196 190 187 189 187 189 193 185 172 157 147 160 178 150 114 126 130 190 239 51 69 75 70 66 58 51
259 267 271 279 290 296 302 306 307 306 301 298 296 288 287 299 307 309 306 302 293 285 280 264 244 215 202 201 198 202 206 204 198 193 190 189 191 188 183 181 181 180 178 176 178 178 169 167 172 154 114 127 165 160 217 216 113 80 67 69 66 57 48
262 272 280 284 288 294 301 304 303 301 296 288 288 285 277 271 278 289 288 282 278 273 275 273 265 236 214 210 201 198 203 203 197 191 185 184 182 177 172 169 167 167 163 160 160 157 153 160 171 160 145 175 195 185 183 176 136 93 44 38 39 37 25
256 267 276 280 286 296 301 306 308 303 291 281 284 282 263 245 244 238 240 243 220 181 206 272 271 242 218 212 205 199 198 200 198 194 188 183 178 173 169 165 162 159 154 152 150 149 148 150 161 163 160 180 191 191 184 168 132 103 8 343 342 344 329
252 257 260 265 278 292 301 305 307 307 293 280 281 272 234 223 221 196 184 184 164 145 147 166 196 214 210 203 200 196 194 197 196 190 185 181 174 165 158 153 150 147 142 140 139 140 141 141 145 145 146 166 185 202 201 167 181 237 259 285 296 311 309
248 247 244 249 265 285 300 301 302 304 295 283 284 264 210 201 205 187 176 174 158 144 148 158 165 179 183 182 186 191 192 191 185 179 176 167 155 147 143 138 136 135 136 138 139 139 140 141 152 161 161 169 188 215 239 245 249 252 260 272 283 289 290
234 230 230 238 262 303 316 310 307 304 295 290 290 259 202 195 196 184 180 175 160 150 151 155 158 169 170 168 174 182 185 183 176 169 158 146 139 134 131 128 125 126 129 132 130 133 150 169 179 177 174 181 201 230 259 267 259 252 262 277 285 286 290
216 218 227 237 265 314 323 323 320 314 304 295 292 263 202 196 195 186 187 182 168 157 153 155 159 165 166 162 161 161 163 163 158 153 148 144 140 134 131 127 122 124 125 124 121 126 187 231 234 202 192 207 230 253 274 283 286 287 290 292 291 290 293
212 213 226 242 265 289 307 320 327 328 322 306 295 274 215 204 204 200 200 197 186 176 170 172 175 176 174 169 163 160 164 164 161 161 158 155 151 143 142 138 134 148 155 165 188 185 231 264 276 285 280 267 261 263 269 281 292 296 297 296 295 298 299
210 214 228 245 259 272 284 302 318 328 330 319 301 289 245 219 215 214 215 215 208 196 195 200 201 196 193 190 185 185 191 190 188 191 186 186 191 182 185 189 198 222 222 227 235 221 228 253 266 279 283 277 271 271 269 269 277 286 291 295 298 302 306
221 233 242 247 255 267 277 288 299 307 319 318 302 292 269 238 227 224 225 226 221 214 213 217 219 220 218 217 219 221 228 234 241 250 258 262 264 269 271 268 266 267 265 261 263 258 253 262 269 278 285 284 282 282 274 262 264 275 285 292 296 301 304
242 249 247 247 254 265 276 282 288 294 302 307 297 286 274 254 238 231 232 234 232 228 226 225 227 230 233 236 239 243 249 256 262 268 271 273 276 280 282 280 276 273 273 274 277 277 272 271 274 279 284 285 285 287 280 271 275 280 284 290 297 303 307
227 229 235 246 254 261 269 275 283 289 292 294 289 278 272 263 251 242 239 239 240 237 235 234 233 235 238 243 246 250 254 257 260 265 268 269 273 276 277 277 276 277 281 283 282 279 274 270 270 275 279 280 282 283 278 277 281 285 289 293 297 302 307
216 219 234 249 255 259 265 270 278 285 287 286 279 268 266 266 263 255 247 245 247 247 244 244 243 242 243 244 248 252 255 256 259 261 263 266 269 270 272 275 280 284 285 285 282 276 271 268 268 271 274 274 276 275 272 274 276 278 283 288 292 298 303
231 234 242 249 253 257 264 268 270 274 278 279 281 282 280 274 269 262 255 251 251 251 251 250 250 250 250 249 250 251 254 256 258 260 261 263 266 268 270 274 279 281 280 281 282 278 274 270 269 271 270 266 266 264 263 266 268 271 280 286 290 295 298
244 251 254 257 263 267 271 273 270 271 275 279 288 292 288 283 277 272 266 259 254 253 253 252 250 250 251 253 253 254 255 255 257 260 261 262 264 266 269 272 274 274 276 279 280 278 276 273 272 273 268 260 256 255 253 256 263 272 283 285 287 290 292
251 259 260 262 268 274 278 280 276 277 280 281 285 283 279 278 276 272 268 266 263 263 261 260 259 254 250 251 252 254 257 258 259 260 262 263 264 265 267 269 270 272 274 275 274 274 273 273 279 282 270 252 244 245 246 252 263 273 279 281 285 288 291
249 257 261 265 268 273 279 281 279 280 279 279 280 280 278 275 271 267 266 266 266 267 267 265 262 257 254 255 257 259 260 261 261 263 265 265 264 263 264 267 271 273 272 269 269 271 271 275 284 282 259 235 230 236 244 254 264 273 279 283 286 290 293
242 251 257 261 264 267 272 276 278 281 279 279 282 284 284 282 277 274 272 268 266 266 267 265 262 260 260 262 264 265 265 265 265 266 266 264 263 264 265 267 271 274 273 270 269 269 270 278 285 273 244 231 231 235 244 257 267 274 279 283 287 291 296
237 244 248 252 255 258 263 268 275 280 281 282 284 286 287 287 284 282 277 271 268 266 264 262 261 262 262 262 264 265 266 268 268 267 267 267 270 272 270 270 274 277 276 275 274 274 276 279 276 259 245 243 243 243 254 265 268 273 278 283 288 292 296
233 237 241 246 250 254 258 263 268 275 281 285 288 288 288 288 286 284 280 276 274 271 266 262 261 261 260 260 262 264 265 266 266 267 270 273 275 274 270 272 278 278 276 275 275 277 276 269 254 246 248 250 247 249 258 261 265 273 280 285 289 293 297
239 243 247 251 254 257 260 265 268 273 277 282 287 289 289 289 287 285 283 281 279 276 273 270 267 263 259 259 261 263 263 263 264 266 268 271 273 273 270 272 273 272 272 274 273 273 267 250 238 240 245 247 248 251 255 261 270 280 284 288 293 296 298
252 259 263 264 266 268 270 273 274 275 276 278 281 284 285 286 286 285 284 283 281 279 278 275 272 268 262 259 260 260 259 259 261 263 266 268 269 269 268 268 267 267 268 267 268 269 261 241 233 235 238 243 250 253 257 269 278 284 289 293 296 297 299
273 275 275 275 276 276 276 276 274 274 274 274 275 276 277 278 279 281 281 281 280 278 276 275 273 272 269 264 260 258 257 258 259 261 263 264 264 265 265 265 263 263 262 261 262 263 253 237 231 234 239 245 252 255 263 275 282 287 293 296 297 298 299
280 278 277 277 277 276 275 274 272 271 271 272 272 272 272 273 274 276 277 279 279 278 276 277 278 276 272 268 263 259 257 256 257 259 260 262 264 265 264 262 261 258 253 252 252 244 232 227 228 232 239 246 252 258 266 276 283 289 293 296 296 296 297
276 275 275 274 273 272 272 271 271 270 270 270 270 269 269 270 271 273 275 277 278 278 277 278 280 279 274 270 264 258 254 253 254 256 257 259 262 261 257 256 256 248 235 229 228 221 217 220 224 230 240 251 261 269 274 280 286 291 294 296 297 297 300
274 273 273 272 271 270 268 268 268 268 268 268 268 267 267 268 269 272 275 278 279 279 278 277 279 281 277 270 263 258 255 254 253 253 254 255 258 258 254 247 236 223 213 210 212 215 216 221 229 238 249 260 270 279 285 289 292 294 295 296 297 299 302
272 272 271 271 271 269 268 266 266 267 268 268 268 269 269 269 270 271 273 276 278 279 277 275 276 279 276 269 265 262 258 253 251 249 250 251 252 253 249 232 215 209 210 211 214 219 223 229 238 247 257 267 278 286 291 294 295 295 295 296 297 299 302
274 274 273 273 272 271 270 269 267 268 269 270 270 270 271 271 271 271 272 274 275 275 275 273 274 275 272 269 270 265 253 246 245 243 242 244 244 239 226 216 212 211 214 217 220 225 230 236 244 253 261 271 280 286 290 292 293 294 295 296 297 300 303